Printer-friendly version
Follow the MPC on Twitter Follow the MPC on Facebook The MPC blog
Minor Planet Center

MPEC 2010-L29 : 2010 LM14

The following Minor Planet Electronic Circular may be linked-to from your own Web pages, but must not otherwise be redistributed electronically.

A form allowing access to any MPEC is at the bottom of this page.


Read MPEC 2010-L28 Read MPEC 2010-L30


M.P.E.C. 2010-L29                                Issued 2010 June 7, 16:31 UT

     The Minor Planet Electronic Circulars contain information on unusual
         minor planets and routine data on comets.  They are published
   on behalf of Commission 20 of the International Astronomical Union by the
          Minor Planet Center, Smithsonian Astrophysical Observatory,
                          Cambridge, MA 02138, U.S.A.

             Prepared using the Tamkin Foundation Computer Network

                              MPC@CFA.HARVARD.EDU
       URL http://www.minorplanetcenter.org/iau/mpc.html  ISSN 1523-6714

                                   2010 LM14

Observations:
     K10L14M* S2010 06 02.41709 16 49 35.21 +66 52 56.8          21   R EL029C51
     K10L14M  s2010 06 02.41709 1 +  552.6368 +  751.3520 + 6836.0933   EL029C51
     K10L14M  S2010 06 02.41722 16 49 35.13 +66 52 58.1                 EL029C51
     K10L14M  s2010 06 02.41722 1 +  629.8407 +  719.5045 + 6832.8517   EL029C51
     K10L14M  S2010 06 02.54939 16 49 18.20 +66 58 28.4                 EL029C51
     K10L14M  s2010 06 02.54939 1 +  547.1080 +  754.0553 + 6836.4424   EL029C51
     K10L14M  S2010 06 02.54952 16 49 18.06 +66 58 28.1                 EL029C51
     K10L14M  s2010 06 02.54952 1 +  624.3858 +  722.3891 + 6833.2496   EL029C51
     K10L14M  S2010 06 02.68170 16 49 00.92 +67 03 58.5                 EL029C51
     K10L14M  s2010 06 02.68170 1 +  542.1539 +  756.9089 + 6836.3041   EL029C51
     K10L14M  S2010 06 02.94630 16 48 26.31 +67 14 57.5                 EL029C51
     K10L14M  s2010 06 02.94630 1 +  533.7483 +  761.2070 + 6836.5539   EL029C51
     K10L14M  S2010 06 03.07861 16 48 08.66 +67 20 24.7                 EL029C51
     K10L14M  s2010 06 03.07861 1 +  528.5153 +  763.5987 + 6836.6267   EL029C51
     K10L14M  S2010 06 03.21091 16 47 51.05 +67 25 53.3                 EL029C51
     K10L14M  s2010 06 03.21091 1 +  523.9077 +  766.2298 + 6836.7237   EL029C51
     K10L14M ^C2010 06 07.20388 16 37 42.09 +70 06 39.6          22.5 R EL029695
     K10L14M ^C2010 06 07.20556 16 37 41.70 +70 06 43.7          22.4 R EL029695
     K10L14M ^C2010 06 07.20725 16 37 41.38 +70 06 48.3          22.7 R EL029695
     K10L14M  C2010 06 07.21898316 37 37.95 +70 07 14.9          22.2 V EL029H21
     K10L14M  C2010 06 07.23203816 37 35.83 +70 07 46.1          22.4 V EL029H21

Observer details:
695 Kitt Peak.  Observers J. V. Scotti, J. A. Larsen, R. S. McMillan,
    D. L. Means.  Measurer J. A. Larsen.  2.3-m f/3 reflector + CCD.
H21 Astronomical Research Observatory, Westfield.  Observer R. Holmes.
    Measurer S. Foglia.
C51 WISE.  Measurers A. Mainzer, E. Wright, J. Bauer, T. Grav, J. Dailey, J.
    Masiero, R. Cutri, R. McMillan, R. Walker.
    (http://wise.ssl.berkeley.edu/mission_sci.html)

Orbital elements:
2010 LM14                                                Earth MOID = 0.3246 AU
Epoch 2010 July 23.0 TT = JDT 2455400.5                 MPC
M 335.93268              (2000.0)            P               Q
n   0.77284050     Peri.  185.27492     +0.99818408     -0.05711421
a   1.1760058      Node   177.71891     +0.05511843     +0.99421276
e   0.4234093      Incl.   28.75025     -0.02430026     -0.09098872
P   1.28           H   21.5           G   0.15           U   9
Residuals in seconds of arc
100602 C51  0.3+  0.5-    100602 C51  0.1+  0.6+    100607 695  0.2-  0.6+
100602 C51  0.2+  0.4+    100603 C51  0.4-  0.7-    100607 H21  0.8-  0.5-
100602 C51  0.3+  0.3+    100603 C51  0.2+  0.0     100607 H21  1.0+  0.0
100602 C51  0.2-  0.3-    100607 695  0.2+  0.1-
100602 C51  0.5-  0.2+    100607 695  0.2-  0.0

Ephemeris:
2010 LM14                a,e,i = 1.18, 0.42, 29                  q = 0.6781
Date    TT    R. A. (2000) Decl.     Delta      r     Elong.  Phase     V
2010 06 03    16 48.32   +67 17.3    0.533    1.149    90.5    61.9    22.6
2010 06 13    16 17.26   +73 45.2    0.522    1.079    82.4    68.9    22.7
2010 06 23    15 10.78   +79 24.3    0.506    1.006    74.4    76.6    22.7
2010 07 03    12 11.66   +82 49.7    0.484    0.932    66.1    85.6    22.8
2010 07 13    08 37.19   +78 30.0    0.457    0.859    57.2    96.3    22.9
2010 07 23    07 22.83   +67 22.5    0.435    0.792    47.8   108.2    23.3

Carl W. Hergenrother         (C) Copyright 2010 MPC           M.P.E.C. 2010-L29

Read MPEC 2010-L28 Read MPEC 2010-L30


MPEC number:

Enter an MPEC number in one of the following forms:

  • 1997-B01 (the full form)
  • J97B01 (the packed version of the full form)
  • B01 (the abbreviated form)

Valid HTML 4.01!